ORBCOMM FM23 [+]

Last updated on Sat May 13 2023 00:03:01 GMT+0000 (Coordinated Universal Time)

1 25477U 98053C 23132.14691144 .00001671 00000+0 64195-3 0 9993 2 25477 45.0095 293.7814 0000685 328.3213 31.7593 14.34094380287174
UTC large
Height (km)
Speed (km/s)
/
Latitude / Longitude
Inclination (degrees)
Orbital Period (minutes)
Azimuth
Elevation
Range (km)
Doppler Factor

Next 0 passes for location: London (51.5072 / 0.1276)

Sorry there are no passes over London.